Погода в Ачуево

Россия / Краснодарский край     45°42′36″N   37°46′33″E
темп.,
°C
ветер,
м/с
пор.,
м/с
влажн.,
%
обл.,
%
осадки,
мм/ч
давл.,
гПа
погр.,
м
11 апреля, вс
вс1100:00+9ссв2281100 0.0 102119
03:00+8св2485100 0.2 1021125
06:00+8с5881100 1.6 1021276
09:00+8ссв8128383 2.4 1021533
12:00+9ссв81079100 0.0 1020266
15:00+10св6880100 0.0 1019146
18:00+10св5884100 0.1 1019156
21:00+9св4688100 0.2 1019135
12 апреля, пн
пн1200:00+9св3489100 0.1 101970
03:00+9в2292100 0.6 101926
06:00+9ююз2293100 0.3 101914
09:00+8юз4596100 0.8 1021153
12:00+9зюз33899 0.1 1021105
15:00+9сз3384100 0.1 102183
18:00+10св1282100 0.1 102122
21:00+9в0086100 0.1 102210
13 апреля, вт
вт1300:00+9юз4486100 0.0 102245
03:00+9ю3487100 0.0 102283
06:00+8ю4792100 0.0 1022205
09:00+9ю4589100 0.0 1023111
12:00+10ююз3388100 0.1 102262
15:00+10зюз338585 0.1 102287
18:00+10з1184100 0.0 102219
21:00+10св2283100 0.0 102114
14 апреля, ср
ср1400:00+10св228579 0.0 102013
03:00+9св118894 0.0 101910
06:00+9вюв1189100 0.0 101910
09:00+9вюв1188100 0.0 101935
12:00+10сз328464 0.1 1018146
15:00+11ссз228469 0.1 101888
18:00+11с118599 0.0 101825
21:00+10ссз128470 0.0 101710
15 апреля, чт
чт1500:00+9вюв33905 0.0 101641
03:00+9вюв339289 0.0 101642
06:00+9ююв349063 0.0 101576
09:00+10ю5678100 0.0 1015102
12:00+10ю5786100 1.2 1015132
15:00+11ююв568169 2.1 101464
18:00+10юз9138599 0.0 1014229
21:00+9юз710905 0.0 1014254